TimeAKST,TemperatureF,Dew PointF,Humidity,Sea Level PressureIn,VisibilityMPH,Wind Direction,Wind SpeedMPH,Gust SpeedMPH,PrecipitationIn,Events,Conditions,WindDirDegrees,DateUTC
12:56 AM,21.0,21.0,100,30.00,10.0,East,3.5,-,N/A,,Clear,100,2013-03-06 09:56:00
1:56 AM,21.0,21.0,100,30.00,10.0,Calm,Calm,-,N/A,,Clear,0,2013-03-06 10:56:00
3:56 AM,19.0,19.0,100,29.99,10.0,Calm,Calm,-,N/A,,Clear,0,2013-03-06 12:56:00
4:56 AM,19.0,19.0,100,29.99,10.0,Calm,Calm,-,N/A,,Clear,0,2013-03-06 13:56:00
5:56 AM,19.0,19.0,100,29.99,10.0,Calm,Calm,-,N/A,,Clear,0,2013-03-06 14:56:00
6:56 AM,19.0,19.0,100,29.99,10.0,Calm,Calm,-,N/A,,Clear,0,2013-03-06 15:56:00
7:56 AM,21.0,21.0,100,29.99,10.0,Calm,Calm,-,N/A,,Clear,0,2013-03-06 16:56:00
8:56 AM,26.1,25.2,96,29.99,10.0,Calm,Calm,-,N/A,,Clear,0,2013-03-06 17:56:00
9:56 AM,32.9,26.1,76,29.98,10.0,Calm,Calm,-,N/A,,Clear,0,2013-03-06 18:56:00
10:56 AM,36.0,27.1,70,29.98,10.0,Calm,Calm,-,N/A,,Clear,0,2013-03-06 19:56:00
11:56 AM,37.9,27.1,65,29.98,10.0,Variable,4.6,-,N/A,,Clear,0,2013-03-06 20:56:00
12:56 PM,37.9,25.2,60,29.97,10.0,West,5.8,-,N/A,,Clear,260,2013-03-06 21:56:00
1:56 PM,39.9,26.1,58,29.97,10.0,West,6.9,-,N/A,,Clear,260,2013-03-06 22:56:00
2:56 PM,39.9,26.1,58,29.97,10.0,West,4.6,-,N/A,,Clear,280,2013-03-06 23:56:00
3:56 PM,39.9,27.1,60,29.96,10.0,Calm,Calm,-,N/A,,Clear,0,2013-03-07 00:56:00
4:56 PM,36.9,28.0,70,29.95,10.0,SSE,3.5,-,N/A,,Clear,150,2013-03-07 01:56:00
5:56 PM,31.1,28.0,88,29.96,10.0,Calm,Calm,-,N/A,,Clear,0,2013-03-07 02:56:00
6:56 PM,29.1,27.1,92,29.98,10.0,ESE,4.6,-,N/A,,Clear,120,2013-03-07 03:56:00
7:56 PM,27.1,27.1,100,29.99,10.0,Calm,Calm,-,N/A,,Clear,0,2013-03-07 04:56:00
8:56 PM,27.1,26.1,96,29.99,10.0,Calm,Calm,-,N/A,,Clear,0,2013-03-07 05:56:00
9:56 PM,25.2,25.2,100,30.00,10.0,ESE,3.5,-,N/A,,Clear,120,2013-03-07 06:56:00
10:56 PM,24.1,24.1,100,30.01,10.0,Calm,Calm,-,N/A,,Clear,0,2013-03-07 07:56:00
11:56 PM,23.0,23.0,100,30.01,10.0,Calm,Calm,-,N/A,,Clear,0,2013-03-07 08:56:00